LOT9 UNKL-UNNT

Flight info

Callsign LOT9
Flight time 0h 58m
Altitude 36000
Route APRUS B926 NATIR
Aircraft B789/H-SADE1E2E3FGHIJ1J2J3J4J5M1P2RVWXYZ/SB2D1G1

Departure

Time 2026-05-05 12:56
Airport Krasnoyarsk International Airport (UNKL)

Arrival

Time 2026-05-05 13:55
Airport Novosibirsk Tolmachevo Airport (UNNT)
Time Latitude Longitude Altitude Speed Heading
2026-05-05 12:32 56.17896 92.48727 962 ft 0 kts 24°
2026-05-05 12:44 56.17894 92.48726 962 ft 2 kts 24°
2026-05-05 12:44 56.17880 92.48712 957 ft 2 kts 31°
2026-05-05 12:45 56.17866 92.48695 957 ft 2 kts 39°
2026-05-05 12:45 56.17854 92.48674 957 ft 2 kts 53°
2026-05-05 12:45 56.17846 92.48648 957 ft 2 kts 73°
2026-05-05 12:45 56.17844 92.48619 957 ft 2 kts 95°
2026-05-05 12:46 56.17848 92.48590 957 ft 2 kts 109°
2026-05-05 12:46 56.17854 92.48562 957 ft 2 kts 110°
2026-05-05 12:46 56.17864 92.48510 957 ft 8 kts 110°
2026-05-05 12:46 56.17882 92.48421 957 ft 8 kts 110°
2026-05-05 12:47 56.17892 92.48374 957 ft 0 kts 110°
2026-05-05 12:48 56.17892 92.48376 958 ft 1 kts 110°
2026-05-05 12:48 56.17890 92.48381 958 ft 0 kts 110°
2026-05-05 12:49 56.17890 92.48383 958 ft 1 kts 110°
2026-05-05 12:49 56.17885 92.48404 957 ft 3 kts 111°
2026-05-05 12:49 56.17878 92.48429 957 ft 1 kts 122°
2026-05-05 12:49 56.17871 92.48444 957 ft 3 kts 129°
2026-05-05 12:50 56.17864 92.48453 957 ft 0 kts 152°
2026-05-05 12:50 56.17854 92.48455 957 ft 3 kts 173°
2026-05-05 12:50 56.17827 92.48449 959 ft 0 kts 199°
2026-05-05 12:50 56.17827 92.48448 959 ft 0 kts 199°
2026-05-05 12:51 56.17824 92.48447 958 ft 2 kts 199°
2026-05-05 12:51 56.17794 92.48426 959 ft 7 kts 207°
2026-05-05 12:52 56.17764 92.48363 960 ft 6 kts 252°
2026-05-05 12:52 56.17767 92.48287 959 ft 7 kts 285°
2026-05-05 12:52 56.17789 92.48161 958 ft 13 kts 292°
2026-05-05 12:52 56.17825 92.48017 961 ft 11 kts 294°
2026-05-05 12:53 56.17858 92.47882 960 ft 12 kts 293°
2026-05-05 12:53 56.17892 92.47742 959 ft 13 kts 293°
2026-05-05 12:53 56.17926 92.47595 960 ft 13 kts 293°
2026-05-05 12:53 56.17961 92.47445 958 ft 13 kts 293°
2026-05-05 12:54 56.18038 92.47122 959 ft 15 kts 293°
2026-05-05 12:54 56.18079 92.46951 960 ft 15 kts 292°
2026-05-05 12:54 56.18112 92.46779 962 ft 13 kts 273°
2026-05-05 12:55 56.18090 92.46704 962 ft 6 kts 223°
2026-05-05 12:55 56.18056 92.46666 959 ft 7 kts 205°
2026-05-05 12:55 56.17982 92.46619 956 ft 17 kts 191°
2026-05-05 12:55 56.17921 92.46661 955 ft 8 kts 115°
2026-05-05 12:56 56.17833 92.47060 956 ft 75 kts 112°
2026-05-05 12:56 56.17513 92.48403 959 ft 157 kts 113°
2026-05-05 12:56 56.17030 92.50512 1296 ft 196 kts 108°
2026-05-05 12:56 56.16534 92.52716 2569 ft 178 kts 117°
2026-05-05 12:57 56.15989 92.54815 3323 ft 198 kts 118°
2026-05-05 12:57 56.15174 92.56955 3738 ft 222 kts 147°
2026-05-05 12:57 56.13646 92.57649 4329 ft 241 kts 190°
2026-05-05 12:57 56.12158 92.56315 5188 ft 251 kts 230°
2026-05-05 12:58 56.11468 92.53517 6413 ft 251 kts 262°
2026-05-05 12:58 56.11391 92.51392 7128 ft 254 kts 268°
2026-05-05 12:58 56.11321 92.48383 8204 ft 256 kts 265°
2026-05-05 12:58 56.11079 92.45135 9355 ft 260 kts 260°
2026-05-05 12:59 56.10726 92.41938 10353 ft 267 kts 259°
2026-05-05 12:59 56.10360 92.38515 10757 ft 293 kts 261°
2026-05-05 12:59 56.09994 92.34749 11117 ft 320 kts 261°
2026-05-05 13:00 56.09208 92.26780 12952 ft 334 kts 260°
2026-05-05 13:00 56.08789 92.22644 13871 ft 341 kts 260°
2026-05-05 13:01 56.07505 92.09911 16611 ft 351 kts 261°
2026-05-05 13:01 56.07064 92.05581 17530 ft 354 kts 261°
2026-05-05 13:01 56.06620 92.01229 18425 ft 357 kts 262°
2026-05-05 13:01 56.06170 91.96828 19175 ft 361 kts 262°
2026-05-05 13:02 56.05713 91.92384 19926 ft 365 kts 262°
2026-05-05 13:02 56.05256 91.87961 20636 ft 368 kts 262°
2026-05-05 13:02 56.04787 91.83434 21326 ft 372 kts 262°
2026-05-05 13:02 56.04312 91.78864 22014 ft 376 kts 262°
2026-05-05 13:03 56.03830 91.74248 22681 ft 380 kts 262°
2026-05-05 13:03 56.03342 91.69588 23352 ft 383 kts 262°
2026-05-05 13:03 56.02848 91.64892 23933 ft 386 kts 262°
2026-05-05 13:03 56.02348 91.60164 24519 ft 388 kts 262°
2026-05-05 13:04 56.01845 91.55414 25071 ft 389 kts 262°
2026-05-05 13:04 56.01345 91.50716 25605 ft 391 kts 262°
2026-05-05 13:04 56.00834 91.45934 26158 ft 392 kts 262°
2026-05-05 13:04 56.00320 91.41138 26678 ft 394 kts 262°
2026-05-05 13:05 55.99801 91.36322 27194 ft 396 kts 262°
2026-05-05 13:05 55.99279 91.31492 27722 ft 397 kts 262°
2026-05-05 13:05 55.98752 91.26633 28224 ft 399 kts 263°
2026-05-05 13:05 55.98221 91.21767 28716 ft 401 kts 263°
2026-05-05 13:06 55.97656 91.16878 29199 ft 403 kts 262°
2026-05-05 13:06 55.97065 91.11994 29670 ft 404 kts 262°
2026-05-05 13:06 55.96489 91.07132 30127 ft 406 kts 263°
2026-05-05 13:06 55.95915 91.02203 30502 ft 407 kts 263°
2026-05-05 13:07 55.95332 90.97249 30877 ft 409 kts 263°
2026-05-05 13:07 55.94736 90.92263 31235 ft 411 kts 263°
2026-05-05 13:07 55.94139 90.87276 31586 ft 413 kts 263°
2026-05-05 13:07 55.93540 90.82259 31937 ft 415 kts 263°
2026-05-05 13:08 55.92936 90.77220 32294 ft 416 kts 263°
2026-05-05 13:08 55.92323 90.72150 32611 ft 419 kts 263°
2026-05-05 13:08 55.91707 90.67068 32934 ft 421 kts 263°
2026-05-05 13:08 55.91094 90.62019 33238 ft 423 kts 263°
2026-05-05 13:09 55.90468 90.56887 33554 ft 425 kts 263°
2026-05-05 13:09 55.89883 90.51734 33821 ft 426 kts 265°
2026-05-05 13:09 55.89337 90.46528 34087 ft 428 kts 264°
2026-05-05 13:09 55.88702 90.41327 34316 ft 432 kts 262°
2026-05-05 13:10 55.88004 90.36114 34567 ft 433 kts 262°
2026-05-05 13:10 55.87260 90.30900 34768 ft 434 kts 263°
2026-05-05 13:10 55.86072 90.20252 34897 ft 445 kts 263°
2026-05-05 13:11 55.85375 90.14951 35147 ft 447 kts 262°
2026-05-05 13:11 55.84647 90.09570 35356 ft 448 kts 262°
2026-05-05 13:11 55.83965 90.04163 35621 ft 447 kts 263°
2026-05-05 13:11 55.83301 89.98788 36032 ft 445 kts 263°
2026-05-05 13:12 55.81900 89.87992 36033 ft 445 kts 262°
2026-05-05 13:12 55.80523 89.77340 36036 ft 440 kts 263°
2026-05-05 13:13 55.79141 89.66743 36032 ft 441 kts 262°
2026-05-05 13:13 55.77744 89.56133 36036 ft 440 kts 262°
2026-05-05 13:14 55.76344 89.45550 36031 ft 441 kts 262°
2026-05-05 13:14 55.74920 89.34869 36046 ft 450 kts 262°
2026-05-05 13:15 55.73468 89.24083 36053 ft 452 kts 262°
2026-05-05 13:15 55.72001 89.13238 36056 ft 452 kts 262°
2026-05-05 13:16 55.70525 89.02412 36052 ft 452 kts 262°
2026-05-05 13:16 55.69045 88.91602 36048 ft 450 kts 262°
2026-05-05 13:17 55.67595 88.80945 36042 ft 443 kts 262°
2026-05-05 13:17 55.66150 88.70462 36048 ft 436 kts 263°
2026-05-05 13:18 55.64708 88.60029 36037 ft 436 kts 263°
2026-05-05 13:18 55.63253 88.49619 36040 ft 436 kts 263°
2026-05-05 13:19 55.61795 88.39224 36049 ft 435 kts 262°
2026-05-05 13:19 55.60336 88.28913 36043 ft 435 kts 262°
2026-05-05 13:20 55.58862 88.18557 36033 ft 434 kts 262°
2026-05-05 13:20 55.57379 88.08201 36039 ft 434 kts 262°
2026-05-05 13:21 55.55885 87.97838 36042 ft 439 kts 262°
2026-05-05 13:21 55.54359 87.87326 36055 ft 448 kts 262°
2026-05-05 13:22 55.52800 87.76682 36054 ft 448 kts 262°
2026-05-05 13:22 55.51235 87.66039 36052 ft 447 kts 262°
2026-05-05 13:23 55.49661 87.55418 36048 ft 448 kts 261°
2026-05-05 13:23 55.48070 87.44798 36041 ft 448 kts 261°
2026-05-05 13:24 55.46477 87.34258 36041 ft 448 kts 261°
2026-05-05 13:24 55.44864 87.23635 36035 ft 449 kts 261°
2026-05-05 13:25 55.43240 87.13023 36037 ft 449 kts 261°
2026-05-05 13:25 55.41608 87.02430 36036 ft 445 kts 261°
2026-05-05 13:26 55.40009 86.92115 36029 ft 437 kts 261°
2026-05-05 13:26 55.38403 86.81798 36031 ft 438 kts 261°
2026-05-05 13:27 55.36784 86.71489 36035 ft 438 kts 261°
2026-05-05 13:27 55.35157 86.61177 36027 ft 437 kts 260°
2026-05-05 13:28 55.33524 86.50898 36020 ft 438 kts 260°
2026-05-05 13:28 55.31890 86.40676 36020 ft 437 kts 260°
2026-05-05 13:29 55.30238 86.30400 36014 ft 437 kts 260°
2026-05-05 13:29 55.28579 86.20140 36013 ft 437 kts 260°
2026-05-05 13:30 55.27069 86.09855 36035 ft 431 kts 268°
2026-05-05 13:30 55.26523 85.99409 36021 ft 431 kts 270°
2026-05-05 13:31 55.26019 85.89074 35685 ft 422 kts 270°
2026-05-05 13:31 55.25773 85.83975 35133 ft 418 kts 270°
2026-05-05 13:31 55.25526 85.78917 34563 ft 415 kts 271°
2026-05-05 13:32 55.25277 85.73900 33980 ft 412 kts 271°
2026-05-05 13:32 55.25028 85.68931 33383 ft 408 kts 271°
2026-05-05 13:32 55.24782 85.64050 32817 ft 403 kts 271°
2026-05-05 13:32 55.24535 85.59192 32265 ft 399 kts 270°
2026-05-05 13:33 55.24289 85.54376 31710 ft 395 kts 270°
2026-05-05 13:33 55.24042 85.49555 31166 ft 401 kts 270°
2026-05-05 13:33 55.23793 85.44679 30613 ft 412 kts 270°
2026-05-05 13:33 55.23529 85.39703 30037 ft 408 kts 269°
2026-05-05 13:34 55.23263 85.34777 29449 ft 402 kts 269°
2026-05-05 13:34 55.23006 85.29942 28907 ft 397 kts 269°
2026-05-05 13:34 55.22752 85.25100 28359 ft 403 kts 269°
2026-05-05 13:34 55.22488 85.20162 27803 ft 409 kts 269°
2026-05-05 13:35 55.22214 85.15231 27245 ft 403 kts 269°
2026-05-05 13:35 55.21944 85.10382 26702 ft 396 kts 269°
2026-05-05 13:35 55.21683 85.05608 26163 ft 392 kts 269°
2026-05-05 13:35 55.21422 85.00856 25637 ft 393 kts 269°
2026-05-05 13:36 55.21155 84.96098 25103 ft 393 kts 268°
2026-05-05 13:36 55.20884 84.91314 24572 ft 397 kts 268°
2026-05-05 13:36 55.20610 84.86490 24034 ft 398 kts 268°
2026-05-05 13:36 55.20335 84.81717 23490 ft 391 kts 268°
2026-05-05 13:37 55.20063 84.77020 22939 ft 384 kts 268°
2026-05-05 13:37 55.19795 84.72375 22421 ft 383 kts 267°
2026-05-05 13:37 55.19308 84.67835 22009 ft 387 kts 259°
2026-05-05 13:37 55.18544 84.63271 21517 ft 392 kts 258°
2026-05-05 13:38 55.17761 84.58718 21000 ft 390 kts 257°
2026-05-05 13:38 55.16974 84.54199 20478 ft 386 kts 258°
2026-05-05 13:38 55.16200 84.49725 19973 ft 383 kts 258°
2026-05-05 13:38 55.15436 84.45295 19458 ft 380 kts 258°
2026-05-05 13:39 55.14673 84.40894 18970 ft 377 kts 258°
2026-05-05 13:39 55.13910 84.36520 18463 ft 375 kts 257°
2026-05-05 13:39 55.13152 84.32178 17951 ft 372 kts 257°
2026-05-05 13:39 55.12401 84.27881 17447 ft 369 kts 257°
2026-05-05 13:40 55.11653 84.23612 16975 ft 366 kts 257°
2026-05-05 13:40 55.10904 84.19338 15958 ft 364 kts 257°
2026-05-05 13:40 55.10185 84.15300 14972 ft 338 kts 257°
2026-05-05 13:40 55.09508 84.11456 14455 ft 332 kts 257°
2026-05-05 13:41 55.08839 84.07654 14054 ft 322 kts 257°
2026-05-05 13:41 55.08193 84.03991 13681 ft 310 kts 258°
2026-05-05 13:41 55.07859 84.00385 13322 ft 295 kts 267°
2026-05-05 13:41 55.07640 83.96837 12978 ft 293 kts 266°
2026-05-05 13:42 55.07418 83.93314 12655 ft 291 kts 266°
2026-05-05 13:42 55.07204 83.89819 12318 ft 289 kts 266°
2026-05-05 13:42 55.06992 83.86348 12000 ft 287 kts 266°
2026-05-05 13:42 55.06777 83.82895 11672 ft 285 kts 266°
2026-05-05 13:43 55.06564 83.79476 11345 ft 283 kts 266°
2026-05-05 13:43 55.06353 83.76112 11018 ft 281 kts 266°
2026-05-05 13:43 55.06141 83.72741 10704 ft 279 kts 265°
2026-05-05 13:43 55.05929 83.69386 10385 ft 277 kts 265°
2026-05-05 13:44 55.05717 83.66053 10074 ft 276 kts 265°
2026-05-05 13:44 55.05506 83.62744 9739 ft 274 kts 265°
2026-05-05 13:44 55.05295 83.59450 9427 ft 273 kts 265°
2026-05-05 13:44 55.05083 83.56159 9120 ft 272 kts 265°
2026-05-05 13:45 55.04872 83.52896 8802 ft 271 kts 265°
2026-05-05 13:45 55.04662 83.49663 8497 ft 265 kts 264°
2026-05-05 13:45 55.04459 83.46542 8198 ft 261 kts 264°
2026-05-05 13:45 55.04255 83.43417 7904 ft 259 kts 264°
2026-05-05 13:46 55.04051 83.40311 7610 ft 258 kts 264°
2026-05-05 13:46 55.03846 83.37211 7331 ft 257 kts 264°
2026-05-05 13:46 55.03643 83.34141 7026 ft 255 kts 264°
2026-05-05 13:46 55.03314 83.31097 6748 ft 255 kts 258°
2026-05-05 13:47 55.02919 83.28128 6463 ft 247 kts 259°
2026-05-05 13:47 55.02551 83.25314 6158 ft 232 kts 259°
2026-05-05 13:47 55.02199 83.22629 5907 ft 223 kts 259°
2026-05-05 13:47 55.01862 83.20060 5657 ft 213 kts 259°
2026-05-05 13:48 55.01535 83.17582 5424 ft 209 kts 259°
2026-05-05 13:48 55.01218 83.15177 5202 ft 206 kts 259°
2026-05-05 13:48 55.00894 83.12730 4981 ft 208 kts 259°
2026-05-05 13:48 55.00570 83.10280 4742 ft 208 kts 259°
2026-05-05 13:49 55.00243 83.07824 4510 ft 207 kts 259°
2026-05-05 13:49 54.99919 83.05382 4282 ft 207 kts 259°
2026-05-05 13:49 54.99598 83.02974 4093 ft 202 kts 259°
2026-05-05 13:49 54.99288 83.00656 3865 ft 192 kts 259°
2026-05-05 13:50 54.99055 82.98416 3646 ft 186 kts 269°
2026-05-05 13:50 54.99277 82.96262 3447 ft 178 kts 288°
2026-05-05 13:50 54.99896 82.94466 3242 ft 174 kts 305°
2026-05-05 13:50 55.00693 82.92919 3063 ft 170 kts 306°
2026-05-05 13:51 55.01466 82.91387 2877 ft 167 kts 306°
2026-05-05 13:51 55.02214 82.89907 2702 ft 156 kts 305°
2026-05-05 13:51 55.02824 82.88503 2468 ft 139 kts 294°
2026-05-05 13:51 55.03102 82.86939 2181 ft 135 kts 279°
2026-05-05 13:52 55.03139 82.85281 1944 ft 138 kts 265°
2026-05-05 13:52 55.02982 82.83625 1812 ft 140 kts 262°
2026-05-05 13:52 55.02813 82.81946 1673 ft 141 kts 262°
2026-05-05 13:52 55.02624 82.80262 1567 ft 143 kts 261°
2026-05-05 13:53 55.02453 82.78540 1416 ft 145 kts 264°
2026-05-05 13:53 55.02317 82.76779 1272 ft 150 kts 264°
2026-05-05 13:53 55.02155 82.74981 1132 ft 154 kts 261°
2026-05-05 13:53 55.01983 82.73100 913 ft 158 kts 261°
2026-05-05 13:54 55.01807 82.71205 747 ft 160 kts 261°
2026-05-05 13:54 55.01628 82.69286 542 ft 161 kts 260°
2026-05-05 13:54 55.01453 82.67379 384 ft 155 kts 261°
2026-05-05 13:54 55.01309 82.65795 378 ft 93 kts 261°
2026-05-05 13:55 55.01256 82.65195 379 ft 36 kts 259°
2026-05-05 13:55 55.01200 82.65064 378 ft 7 kts 184°
2026-05-05 13:55 55.01157 82.65068 378 ft 6 kts 175°
2026-05-05 13:55 55.01112 82.65078 378 ft 7 kts 172°
2026-05-05 13:56 55.01062 82.65091 378 ft 8 kts 172°
2026-05-05 13:56 55.01002 82.65107 378 ft 9 kts 172°
2026-05-05 13:56 55.00936 82.65123 378 ft 8 kts 176°
2026-05-05 13:56 55.00903 82.65123 378 ft 1 kts 204°
2026-05-05 13:57 55.00895 82.65109 378 ft 5 kts 227°
2026-05-05 13:57 55.00875 82.64984 378 ft 17 kts 273°
2026-05-05 13:57 55.00904 82.64750 378 ft 20 kts 285°
2026-05-05 13:57 55.00935 82.64515 378 ft 20 kts 281°
2026-05-05 13:58 55.00964 82.64281 379 ft 20 kts 283°
2026-05-05 13:58 55.01000 82.64057 379 ft 15 kts 305°
2026-05-05 13:58 55.01080 82.63993 380 ft 15 kts 355°
2026-05-05 13:58 55.01170 82.64096 380 ft 21 kts 74°
2026-05-05 13:59 55.01253 82.65152 379 ft 51 kts 82°
2026-05-05 13:59 55.01303 82.65745 377 ft 48 kts 82°
2026-05-05 14:00 55.01361 82.66545 380 ft 15 kts 115°
2026-05-05 14:00 55.01320 82.66598 379 ft 10 kts 162°
2026-05-05 14:00 55.01185 82.66640 378 ft 20 kts 171°
2026-05-05 14:00 55.01102 82.66710 378 ft 7 kts 107°
2026-05-05 14:01 55.01099 82.66798 378 ft 10 kts 95°
2026-05-05 14:01 55.01084 82.66891 378 ft 7 kts 104°
2026-05-05 14:01 55.01081 82.66955 378 ft 4 kts 89°
2026-05-05 14:01 55.01085 82.67014 378 ft 8 kts 82°
2026-05-05 14:02 55.01096 82.67142 378 ft 10 kts 80°
2026-05-05 14:02 55.01104 82.67245 378 ft 0 kts 83°
2026-05-05 14:04 55.01103 82.67222 378 ft 2 kts 88°
2026-05-05 14:04 55.01104 82.67193 378 ft 2 kts 103°
2026-05-05 14:04 55.01108 82.67176 378 ft 2 kts 134°
2026-05-05 14:05 55.01123 82.67164 378 ft 2 kts 170°
2026-05-05 14:05 55.01145 82.67158 378 ft 2 kts 172°
2026-05-05 14:05 55.01156 82.67156 378 ft 0 kts 172°